Weather History for Green Bay, WI

Change the Weather History Date:

Sunday, July 28, 2013

  Actual Average Record
Temperature  
Mean Temperature 57 °F 69 °F  
Max Temperature 61 °F 80 °F 101 °F (1916)
Min Temperature 52 °F 58 °F 50 °F (1952)
Degree Days  
Heating Degree Days 8 1  
Month to date heating degree days 21 28  
Since 1 June heating degree days 93 120  
Since 1 July heating degree days 21 28  
Cooling Degree Days 0 5  
Month to date cooling degree days 192 140  
Year to date cooling degree days 335 241  
Since 1 June cooling degree days 297 223  
Growing Degree Days 6 (Base 50)    
Moisture  
Dew Point 53 °F    
Average Humidity 83    
Maximum Humidity 93    
Minimum Humidity 72    
Precipitation  
Precipitation 0.19 in 0.11 in 2.25 in (2011)
Month to date precipitation 3.35 3.18  
Year to date precipitation 20.94 16.71  
Snow  
Snow 0.00 in 0.00 in 0.00 in ()
Month to date snowfall 0.0 0.0  
Since 1 June snowfall 0.0 0.0  
Since 1 July snowfall 0.0 0.0  
Snow Depth 0.00 in    
Sea Level Pressure  
Sea Level Pressure 29.88 in    
Wind  
Wind Speed 9 mph (WNW)    
Max Wind Speed 17 mph    
Max Gust Speed 22 mph    
Visibility 9 miles    
Events Rain    
T = Trace of Precipitation, MM = Missing Value Source: NWS Daily Summary

Daily Weather History Graph

Daily Weather History Graph

Search for Another Location

Airport:

Trip Planner

Search our weather history database for the weather conditions in past years. The results will help you decide how hot, cold, wet, or windy it might be!

Date:

Astronomy

Jul. 28, 2013 Rise Set
Actual Time 5:35 AM CDT 8:22 PM CDT
Civil Twilight 5:01 AM CDT 8:55 PM CDT
Nautical Twilight 4:18 AM CDT 9:38 PM CDT
Astronomical Twilight 3:28 AM CDT 10:27 PM CDT
Moon 11:24 PM CDT (7/28) 12:36 PM CDT (7/28)
Length of Visible Light 15h 54m
Length of Day
14h 46m
Waning Gibbous, 60% of the Moon is Illuminated
Jul 28
Waning Gibbous
Jul 29
Last Quarter
Aug 6
New
Aug 14
First Quarter
Aug 20
Full

Hourly Weather History & Observations

Time (CDT) Temp. Dew Point Humidity Pressure Visibility Wind Dir Wind Speed Gust Speed Precip Events Conditions
12:53 AM 54.0 °F 51.1 °F 90% 29.83 in 10.0 mi West 4.6 mph - 0.00 in Rain Light Rain
1:53 AM 54.0 °F 51.1 °F 90% 29.82 in 10.0 mi West 6.9 mph - 0.00 in   Overcast
2:53 AM 54.0 °F 52.0 °F 93% 29.82 in 10.0 mi WNW 8.1 mph - N/A   Overcast
3:53 AM 54.0 °F 52.0 °F 93% 29.82 in 10.0 mi NW 8.1 mph - N/A   Overcast
4:10 AM 54.0 °F 51.1 °F 90% 29.81 in 10.0 mi NNW 6.9 mph - N/A   Overcast
4:19 AM 54.0 °F 51.1 °F 90% 29.81 in 10.0 mi NNW 6.9 mph - N/A   Overcast
4:28 AM 53.1 °F 51.1 °F 93% 29.82 in 10.0 mi NNW 6.9 mph - N/A   Overcast
4:53 AM 53.1 °F 51.1 °F 93% 29.83 in 10.0 mi NNW 5.8 mph - N/A   Overcast
5:53 AM 53.1 °F 51.1 °F 93% 29.83 in 10.0 mi NW 4.6 mph - N/A   Overcast
6:06 AM 52.0 °F 51.1 °F 97% 29.83 in 10.0 mi NW 3.5 mph - N/A   Overcast
6:53 AM 53.1 °F 51.1 °F 93% 29.85 in 10.0 mi WNW 5.8 mph - N/A   Overcast
7:01 AM 54.0 °F 51.1 °F 90% 29.84 in 10.0 mi WNW 6.9 mph - N/A   Overcast
7:53 AM 54.0 °F 51.1 °F 90% 29.86 in 10.0 mi WNW 10.4 mph - N/A   Overcast
8:27 AM 57.0 °F 50.0 °F 77% 29.85 in 10.0 mi West 11.5 mph - N/A   Mostly Cloudy
8:38 AM 57.0 °F 48.0 °F 72% 29.85 in 10.0 mi WNW 10.4 mph - N/A   Scattered Clouds
8:48 AM 55.4 °F 48.2 °F 77% 29.85 in 10.0 mi WNW 12.7 mph - N/A   Mostly Cloudy
8:53 AM 55.9 °F 48.9 °F 77% 29.86 in 10.0 mi WNW 12.7 mph - N/A   Mostly Cloudy
9:53 AM 55.9 °F 48.0 °F 75% 29.87 in 10.0 mi WNW 12.7 mph - N/A   Overcast
10:53 AM 57.0 °F 48.9 °F 74% 29.88 in 10.0 mi NW 11.5 mph - N/A   Overcast
11:53 AM 57.0 °F 53.1 °F 87% 29.88 in 10.0 mi West 10.4 mph - 0.00 in   Overcast
12:53 PM 55.9 °F 53.1 °F 90% 29.89 in 6.0 mi WSW 9.2 mph - 0.02 in Rain Light Rain
1:34 PM 57.0 °F 54.0 °F 89% 29.88 in 10.0 mi SW 8.1 mph - 0.00 in Rain Light Rain
1:53 PM 57.0 °F 54.0 °F 89% 29.88 in 10.0 mi WSW 10.4 mph - 0.01 in Rain Light Rain
2:53 PM 61.0 °F 55.9 °F 83% 29.87 in 10.0 mi WSW 10.4 mph - 0.00 in Rain Light Rain
3:53 PM 61.0 °F 55.9 °F 83% 29.87 in 10.0 mi WSW 5.8 mph - 0.02 in Rain Light Rain
4:53 PM 60.1 °F 57.0 °F 90% 29.90 in 5.0 mi WNW 10.4 mph - 0.02 in Rain Light Rain
5:22 PM 59.0 °F 57.9 °F 96% 29.90 in 1.8 mi WNW 8.1 mph - 0.03 in Rain Heavy Rain
5:33 PM 59.0 °F 55.9 °F 90% 29.90 in 1.5 mi NW 15.0 mph 19.6 mph 0.07 in Rain Rain
5:42 PM 59.0 °F 57.0 °F 93% 29.90 in 3.0 mi WNW 10.4 mph - 0.09 in Rain Light Rain
5:49 PM 59.0 °F 55.4 °F 88% 29.90 in 4.0 mi NW 13.8 mph - 0.09 in Rain Light Rain
5:53 PM 59.0 °F 57.0 °F 93% 29.91 in 4.0 mi NW 12.7 mph - 0.09 in Rain Light Rain
6:28 PM 57.9 °F 55.9 °F 93% 29.91 in 5.0 mi NW 9.2 mph - 0.01 in Rain Light Rain
6:53 PM 57.0 °F 55.9 °F 96% 29.93 in 4.0 mi WNW 8.1 mph - 0.02 in Rain Light Rain
7:21 PM 57.9 °F 55.0 °F 90% 29.92 in 10.0 mi NW 6.9 mph - 0.01 in   Overcast
7:53 PM 57.9 °F 55.9 °F 93% 29.94 in 10.0 mi West 3.5 mph - 0.01 in   Overcast
8:02 PM 57.9 °F 55.9 °F 93% 29.94 in 10.0 mi WNW 4.6 mph - N/A   Overcast
8:15 PM 57.9 °F 55.0 °F 90% 29.94 in 8.0 mi NW 4.6 mph - N/A   Overcast
8:23 PM 57.9 °F 55.0 °F 90% 29.94 in 7.0 mi NW 3.5 mph - N/A   Overcast
8:53 PM 57.0 °F 55.0 °F 93% 29.95 in 10.0 mi NW 6.9 mph - N/A   Overcast
9:33 PM 57.0 °F 55.0 °F 93% 29.96 in 10.0 mi NW 9.2 mph - N/A   Overcast
9:53 PM 57.0 °F 55.0 °F 93% 29.97 in 10.0 mi WNW 6.9 mph - N/A   Overcast
10:53 PM 57.0 °F 54.0 °F 89% 29.98 in 10.0 mi WNW 10.4 mph - N/A   Overcast
11:53 PM 55.0 °F 52.0 °F 89% 29.99 in 10.0 mi NW 6.9 mph - N/A   Overcast